CZ-3B DEB, 40169

Orbit data source: Space-Track

CZ-3B DEB, 40169 is space debris in HEO originally from a launch on Sat, 04 Sep 2010 UTC launched from the Xichang Space Center, China (XSC). Debris objects in space refer to the collection of defunct objects orbiting the Earth. Examples of debris include non-operational satellites, rocket bodies, and fragments generated from explosions, collisions, or faulty payload assembly.

Loading next visibility...
Identifier
40169, 2010-042W
Orbit
HEO
Country
Flag of CNCN / PRC
Related business
Manufacturer
CALT
Mission
Spacecraft
Bus & Motor
Unknown
Mass
Unknown
Launch date (UTC)
2010-09-04 (15 years ago)
Launch vehicle
Unknown
Launch site
Xichang Space Center, China (XSC)
Object type
Payload
Rocket body
Debris
Shape & HBR
Unknown shape, 0.2 m
Radar Cross Section
Medium (>0.1 m² and <1 m²)

Expand to show TLE details & history
Last TLE update: 23 hours ago

TLE from 23 hours ago
0 CZ-3B DEB
1 40169U 10042W   25340.48212238 -.00000056  00000-0  00000-0 0  9993
2 40169  26.8840 283.9052 7198613 318.2644 308.8460  1.93998982 94057
Epoch: 2025-12-06T11:34Z
TLE epoch observation values (Epoch: 2025-12-06T11:34:15.373Z)
Latitude
-0.25279°
Longitude
-144.76449°
Altitude
21,631.376 km
Speed
3.713 km/s
True Right ascension
06h 57m 14s
True Declination
0° 15' 09"
Sunlit
Object was in daylight at epoch
Visualization orbit readout
Latitude
Unknown
Longitude
Unknown
Altitude
Unknown
Speed
Unknown
Apparent Right ascension
Unknown
Apparent Declination
Unknown
Sunlit
N/A
Visualization observer readout
Local Sidereal Time
08:54:36
Azimuth
Unknown
Elevation
Unknown
Doppler factor
Unknown
Orbital elements
Apogee altitude
40,332.559 km
Perigee altitude
1,230.31 km
Semi-major axis
27,159.571 km
Eccentricity
0.71986
Inclination
26.884°
RAAN
283.9052°
Arg. of periapsis
318.2644°
True anomaly
222.34003°
Mean anomaly
308.846°
Eccentric anomaly
267.63608°
Mean motion
0.48491 °/min
Orbital period
742.41 mins
BSTAR
0
Loading maneuver chart data...
Computing Atmospheric mass density...
Loading historical data...
Loading historical data...
Loading historical data...
Loading historical data...
Loading historical data...
Loading historical data...
Loading historical data...

Documentation

Showing up to 5 results
|